This is the latest recevied weather packets stored in our database for station/object KK6MIG-13. If no packets are shown the sender has not sent any weather packets the latest 10 day(s).
| Time | Temp. | Humidity | Pressure | Rain* | Wind** | Luminosity | Snow |
|---|---|---|---|---|---|---|---|
| 1777419618 | 15.56° C | 20% | 1017.5 hPa | 0 mm | - | 613 W/m² | - |
| 1777419553 | 15.56° C | 15% | 1017.5 hPa | 0 mm | - | 615 W/m² | - |
| 1777419492 | 15.56° C | 15% | 1017.5 hPa | 0 mm | - | 621 W/m² | - |
| 1777419432 | 15.56° C | 17% | 1017.5 hPa | 0 mm | - | 624 W/m² | - |
| 1777419372 | 15.56° C | 20% | 1017.6 hPa | 0 mm | - | 626 W/m² | - |
| 1777419312 | 15.56° C | 16% | 1017.5 hPa | 0 mm | - | 629 W/m² | - |
| 1777419247 | 15.56° C | 15% | 1017.6 hPa | 0 mm | - | 629 W/m² | - |
| 1777419186 | 15.56° C | 17% | 1017.5 hPa | 0 mm | - | 633 W/m² | - |
| 1777419126 | 15.56° C | 20% | 1017.6 hPa | 0 mm | - | 635 W/m² | - |
| 1777419075 | 15.56° C | 21% | 1017.6 hPa | 0 mm | - | 643 W/m² | - |
| 1777419070 | 15.56° C | 22% | 1017.5 hPa | 0 mm | - | 640 W/m² | - |
| 1777418940 | 15.56° C | 22% | 1017.6 hPa | 0 mm | - | 645 W/m² | - |
| 1777418880 | 15.56° C | 19% | 1017.6 hPa | 0 mm | - | 649 W/m² | - |
| 1777418829 | 15.56° C | 19% | 1017.6 hPa | 0 mm | - | 656 W/m² | - |
| 1777418825 | 15.56° C | 17% | 1017.6 hPa | 0 mm | - | 652 W/m² | - |
| 1777418700 | 15.56° C | 13% | 1017.6 hPa | 0 mm | - | 661 W/m² | - |
| 1777418635 | 15.56° C | 13% | 1017.6 hPa | 0 mm | - | 663 W/m² | - |
| 1777418575 | 15.56° C | 13% | 1017.6 hPa | 0 mm | - | 664 W/m² | - |
| 1777418515 | 15.56° C | 16% | 1017.7 hPa | 0 mm | - | 670 W/m² | - |
| 1777418454 | 15.56° C | 16% | 1017.6 hPa | 0 mm | - | 670 W/m² | - |
| 1777418394 | 15.56° C | 16% | 1017.6 hPa | 0 mm | - | 675 W/m² | - |
| 1777418329 | 15.56° C | 13% | 1017.6 hPa | 0 mm | - | 677 W/m² | - |
| 1777418269 | 15.56° C | 12% | 1017.6 hPa | 0 mm | - | 680 W/m² | - |
| 1777418209 | 15.56° C | 13% | 1017.6 hPa | 0 mm | - | 686 W/m² | - |
| 1777418148 | 15.56° C | 16% | 1017.6 hPa | 0 mm | - | 689 W/m² | - |
* Rain latest hour (hover to see other rain measurements)
** Current wind speed in m/s (hover to see current wind gust speed)